Content
SEND FEEDBACK

Daily
Averages
Monthly
Summary
Greece

ATHENS, GREECE


Home > Europe > Greece
Elevation: 69 feet     Latitude: 37 54N     Longitude: 023 44E

WEATHER
 
SELECT A DAY
Number of Records: 76,381;   Date Range: 4/14/01 - 7/11/14
 
SHARE

PRINT THIS DATA

[ ← Previous Day ]
WEATHER ALMANAC - MARCH 26, 2013
[ Next Day → ]
[ °C ]   °F
Weather ElementAverageHighLow
Temperature60.5 °F66.2 °F (12:50 pm)53.6 °F (5:50 am)
Dewpoint46.1 °F51.8 °F (12:50 am)41 °F (9:50 pm)
Humidity60.6 %82 % (1:20 am)46 % (12:50 pm)
Barometer29.57 in29.65 in (9:50 pm)29.53 in (1:50 pm)
Wind Speed12.5 mph20.7 mph (7:20 pm)
Wind Gust19.6 mph (9:20 pm)
Weather ElementAverage
Visibility6.2 mi
Wind DirectionSW (222.8 °)

Weather ElementTotal
Precipitation---
Heating Degree Days5.1 (Base 65)
Growing Degree Days9.9 (Base 50)
Averaged from 47 records on March 26, 2013
WEATHER CONDITIONS BREAKOUT
WIND DIRECTION BREAKOUT
WEATHER BY HOUR - MARCH 26, 2013
[ °C ]   °F
Local TimeTemperatureDewpointHumidityBarometerVisibilityWind DirectionWind SpeedGust SpeedPrecipitationEventsConditions
12:50 AM59.0 °F51.8 °F77 %29.62 in6.2 miSSE (160°)8.1 mphMostly Cloudy
1:20 AM57.2 °F51.8 °F82 %29.59 in6.2 miSouth (190°)13.8 mphMostly Cloudy
1:50 AM57.2 °F50.0 °F77 %29.59 in6.2 miSouth (180°)10.4 mphMostly Cloudy
2:20 AM55.4 °F50.0 °F82 %29.59 in6.2 miSSW (200°)12.7 mphMostly Cloudy
2:50 AM55.4 °F50.0 °F82 %29.59 in6.2 miSSW (200°)11.5 mphScattered Clouds
3:20 AM55.4 °F48.2 °F77 %29.59 in6.2 miSouth (180°)10.4 mphScattered Clouds
3:50 AM55.4 °F48.2 °F77 %29.56 in6.2 miSouth (190°)13.8 mphScattered Clouds
4:20 AM55.4 °F48.2 °F77 %29.56 in6.2 miSouth (170°)10.4 mphScattered Clouds
4:50 AM55.4 °F48.2 °F77 %29.56 in6.2 miSouth (190°)11.5 mphScattered Clouds
5:20 AM55.4 °F48.2 °F77 %29.56 in6.2 miSSW (210°)8.1 mphPartly Cloudy
5:50 AM53.6 °F46.4 °F77 %29.56 inVariable3.5 mphClear
6:20 AM53.6 °F46.4 °F77 %29.56 in6.2 miWSW (250°)4.6 mphScattered Clouds
6:50 AM53.6 °F46.4 °F77 %29.56 in6.2 miWSW (240°)4.6 mphScattered Clouds
7:20 AM57.2 °F50.0 °F77 %29.56 in6.2 miSSW (200°)5.8 mphMostly Cloudy
7:50 AM59.0 °F50.0 °F72 %29.56 in6.2 miSouth (190°)12.7 mphRainLight Rain
8:20 AM59.0 °F50.0 °F72 %29.56 in6.2 miSSW (210°)9.2 mphMostly Cloudy
8:50 AM59.0 °F50.0 °F72 %29.56 in6.2 miSSW (200°)11.5 mphScattered Clouds
9:20 AM60.8 °F48.2 °F63 %29.56 in6.2 miSSW (210°)10.4 mphScattered Clouds
9:50 AM60.8 °F48.2 °F63 %29.56 in6.2 miSSW (210°)11.5 mphScattered Clouds
10:20 AM62.6 °F50.0 °F63 %29.56 in6.2 miSW (220°)12.7 mphPartly Cloudy
10:50 AM64.4 °F48.2 °F56 %29.56 in6.2 miWSW (240°)13.8 mphPartly Cloudy
11:20 AM64.4 °F44.6 °F49 %29.56 in6.2 miWSW (240°)15.0 mphPartly Cloudy
11:50 AM64.4 °F46.4 °F52 %29.56 in6.2 miWSW (240°)13.8 mphScattered Clouds
12:20 PM64.4 °F44.6 °F49 %29.56 in6.2 miWSW (240°)16.1 mphScattered Clouds
12:50 PM66.2 °F44.6 °F46 %29.56 in6.2 miWSW (240°)13.8 mphScattered Clouds
1:20 PM66.2 °F46.4 °F49 %29.56 in6.2 miSW (230°)15.0 mphScattered Clouds
1:50 PM66.2 °F44.6 °F46 %29.53 in6.2 miWSW (240°)15.0 mphScattered Clouds
2:20 PM66.2 °F46.4 °F49 %29.53 in6.2 miSW (230°)13.8 mphScattered Clouds
2:50 PM66.2 °F44.6 °F46 %29.53 in6.2 miWSW (250°)16.1 mphScattered Clouds
3:20 PM66.2 °F44.6 °F46 %29.53 in6.2 miWest (260°)15.0 mphScattered Clouds
3:50 PM66.2 °F46.4 °F49 %29.53 in6.2 miWSW (240°)16.1 mphPartly Cloudy
4:20 PM66.2 °F46.4 °F49 %29.53 in6.2 miSW (230°)16.1 mphPartly Cloudy
4:50 PM66.2 °F44.6 °F46 %29.53 in6.2 miWSW (240°)17.3 mphPartly Cloudy
5:20 PM64.4 °F44.6 °F49 %29.53 in6.2 miWSW (250°)13.8 mphMostly Cloudy
5:50 PM62.6 °F44.6 °F52 %29.53 in6.2 miWSW (250°)16.1 mphMostly Cloudy
6:20 PM62.6 °F42.8 °F48 %29.56 in6.2 miWest (260°)19.6 mphMostly Cloudy
6:50 PM62.6 °F42.8 °F48 %29.56 in6.2 miWest (260°)18.4 mphMostly Cloudy
7:20 PM60.8 °F42.8 °F52 %29.56 in6.2 miWest (270°)20.7 mphMostly Cloudy
7:50 PM60.8 °F42.8 °F52 %29.59 in6.2 miWest (270°)18.4 mphMostly Cloudy
8:20 PM60.8 °F42.8 °F52 %29.62 in6.2 miWest (260°)8.1 mphMostly Cloudy
8:50 PM60.8 °F42.8 °F52 %29.62 in6.2 miWest (270°)13.8 mphScattered Clouds
9:20 PM59.0 °F42.8 °F55 %29.62 in6.2 miWSW (250°)8.1 mph19.6 mphScattered Clouds
9:50 PM59.0 °F41.0 °F51 %29.65 in6.2 miSW (230°)11.5 mphMostly Cloudy
10:20 PM59.0 °F42.8 °F55 %29.65 in6.2 miSSW (210°)12.7 mphScattered Clouds
10:50 PM59.0 °F41.0 °F51 %29.65 in6.2 miWSW (250°)10.4 mphScattered Clouds
11:20 PM59.0 °F41.0 °F51 %29.65 in6.2 miWSW (240°)12.7 mphPartly Cloudy
11:50 PM59.0 °F41.0 °F51 %29.65 in6.2 miWest (280°)10.4 mphPartly Cloudy
Hourly data recorded from LGAV, located miles away from Athens, Greece







STORIES FROM OUR PARTNERS